User: anonymous   Login
Location: Iola
(37.9240°N, 95.4000°W)
Time: 22:35:24
(UTC-05:00)
Language:

Meteor 2-10 Rocket - Orbit

View from above orbital plane
View from above orbital plane
View from above satellite
View from above satellite

Ground track
Ground track

The orbit data is extracted from the following two-line orbital elements,

1 14453U 83109B   15241.02969585  .00000066  00000-0  21375-4 0  9999
2 14453 081.1651 048.3745 0105248 167.1224 193.2682 14.24611824653812
Epoch (UTC): 29 August 2015 00:42:45
Eccentricity: 0.0105248
inclination: 81.1651°
perigee height: 734 km
apogee height: 885 km
right ascension of ascending node: 48.3745°
argument of perigee: 167.1224°
revolutions per day: 14.24611824
mean anomaly at epoch: 193.2682°
orbit number at epoch: 65381

The dashed part of the orbit path shows where the satellite is in the earth's shadow,  

DLR